| time (UTC) | temp C | wind direction | speed KPH | gust KPH | rain 1hr cm | rain 24hr cm | rain mn cm | humidity % | barometer mb |
| 20260510120005 | 10 | 324 | 0.0 | 1.6 | 0.00 | 1.27 | 0.03 | 1 | 1015.8 |
| 20260510114600 | 10 | 60 | 1.6 | 9.7 | 0.00 | 1.27 | 0.03 | 1 | 1015.3 |
| 20260510113058 | 10 | 310 | 4.8 | 11.3 | 0.00 | 1.27 | 0.03 | 2 | 1015.0 |
| 20260510111552 | 10 | 338 | 1.6 | 6.4 | 0.00 | 1.27 | 0.03 | 1 | 1014.4 |
| 20260510110047 | 10 | 330 | 3.2 | 9.7 | 0.00 | 1.27 | 0.03 | 1 | 1014.0 |
| 20260510104544 | 10 | 34 | 3.2 | 11.3 | 0.00 | 1.30 | 0.03 | 1 | 1013.6 |
| 20260510103041 | 10 | 325 | 1.6 | 12.9 | 0.00 | 1.30 | 0.03 | 1 | 1013.1 |
| 20260510101537 | 10 | 321 | 3.2 | 11.3 | 0.00 | 1.30 | 0.03 | 1 | 1013.1 |
| 20260510100030 | 10 | 347 | 1.6 | 11.3 | 0.00 | 1.30 | 0.03 | 1 | 1012.7 |
| 20260510094542 | 10 | 352 | 1.6 | 11.3 | 0.00 | 1.35 | 0.03 | 1 | 1012.6 |
| 20260510093022 | 10 | 333 | 3.2 | 14.5 | 0.00 | 1.35 | 0.03 | 1 | 1012.4 |
| 20260510091522 | 10 | 304 | 4.8 | 12.9 | 0.00 | 1.35 | 0.03 | 1 | 1012.3 |
| 20260510090016 | 11 | 326 | 3.2 | 14.5 | 0.00 | 1.35 | 0.03 | 1 | 1011.9 |
| 20260510084508 | 11 | 336 | 1.6 | 8.0 | 0.00 | 1.37 | 0.03 | 1 | 1011.7 |
| 20260510083004 | 11 | 311 | 0.0 | 8.0 | 0.00 | 1.37 | 0.03 | 1 | 1011.7 |
| 20260510081559 | 10 | 325 | 0.0 | 1.6 | 0.00 | 1.37 | 0.03 | 1 | 1011.4 |
| 20260510080054 | 11 | 281 | 0.0 | 0.0 | 0.00 | 1.37 | 0.03 | 1 | 1011.2 |
| 20260510074550 | 11 | 281 | 0.0 | 0.0 | 0.00 | 1.42 | 0.03 | 1 | 1011.1 |
| 20260510073048 | 11 | 281 | 0.0 | 3.2 | 0.00 | 1.42 | 0.03 | 1 | 1010.8 |
| 20260510071549 | 11 | 246 | 0.0 | 0.0 | 0.00 | 1.42 | 0.03 | 1 | 1010.8 |
| 20260510070037 | 11 | 243 | 0.0 | 0.0 | 0.00 | 1.42 | 0.03 | 1 | 1010.7 |
| 20260510064532 | 11 | 195 | 0.0 | 0.0 | 0.00 | 1.50 | 0.03 | 1 | 1010.7 |
| 20260510063027 | 11 | 193 | 0.0 | 3.2 | 0.00 | 1.50 | 0.03 | 1 | 1010.6 |
| 20260510061522 | 11 | 197 | 0.0 | 0.0 | 0.00 | 1.50 | 0.03 | 1 | 1010.3 |
| 20260510060019 | 11 | 199 | 0.0 | 0.0 | 0.03 | 1.50 | 0.03 | 1 | 1010.2 |
| 20260510054515 | 11 | 193 | 1.6 | 4.8 | 0.03 | 1.60 | 0.03 | 1 | 1010.3 |
| 20260510053034 | 12 | 213 | 1.6 | 4.8 | 0.03 | 1.60 | 0.03 | 1 | 1010.6 |
| 20260510051506 | 11 | 167 | 4.8 | 11.3 | 0.03 | 1.60 | 0.03 | 1 | 1010.6 |
| 20260510050003 | 11 | 149 | 0.0 | 0.0 | 0.00 | 1.65 | 0.00 | 1 | 1010.5 |
| 20260510044558 | 11 | 143 | 0.0 | 1.6 | 0.03 | 1.65 | 0.00 | 1 | 1010.2 |
| 20260510043102 | 11 | 156 | 0.0 | 0.0 | 0.25 | 1.65 | 0.00 | 1 | 1010.2 |
| 20260510041549 | 11 | 149 | 0.0 | 0.0 | 0.25 | 1.65 | 0.00 | 1 | 1010.2 |
| 20260510040045 | 12 | 149 | 0.0 | 0.0 | 0.41 | 1.65 | 0.00 | 1 | 1010.4 |
| 20260510034544 | 12 | 118 | 0.0 | 4.8 | 0.41 | 1.65 | 1.60 | 1 | 1010.7 |
| 20260510033039 | 12 | 146 | 0.0 | 1.6 | 0.20 | 1.42 | 1.40 | 1 | 1010.1 |
| 20260510031537 | 12 | 338 | 0.0 | 4.8 | 0.20 | 1.42 | 1.40 | 1 | 1010.2 |
| 20260510030030 | 12 | 285 | 0.0 | 3.2 | 0.05 | 1.30 | 1.24 | 1 | 1011.0 |
| 20260510024527 | 12 | 158 | 0.0 | 1.6 | 0.03 | 1.30 | 1.19 | 1 | 1009.8 |
| 20260510023021 | 11 | 153 | 0.0 | 0.0 | 0.03 | 1.30 | 1.19 | 1 | 1009.6 |
| 20260510021531 | 11 | 183 | 0.0 | 0.0 | 0.03 | 1.30 | 1.19 | 1 | 1009.6 |
| 20260510020013 | 11 | 192 | 0.0 | 0.0 | 0.03 | 1.30 | 1.19 | 1 | 1009.6 |
| 20260510014508 | 12 | 192 | 0.0 | 0.0 | 0.18 | 1.30 | 1.17 | 1 | 1009.6 |
| 20260510013004 | 12 | 185 | 0.0 | 0.0 | 0.76 | 1.30 | 1.17 | 1 | 1009.4 |
| 20260510011600 | 12 | 194 | 0.0 | 0.0 | 0.76 | 1.30 | 1.17 | 1 | 1009.1 |
| 20260510010055 | 12 | 296 | 1.6 | 12.9 | 0.76 | 1.30 | 1.17 | 1 | 1009.7 |
| 20260510004553 | 12 | 316 | 3.2 | 16.1 | 0.58 | 1.14 | 0.99 | 1 | 1009.6 |
| 20260510003047 | 15 | 313 | 11.3 | 29.0 | 0.03 | 0.58 | 0.43 | 55 | 1009.3 |
| 20260510001544 | 17 | 214 | 3.2 | 6.4 | 0.00 | 0.56 | 0.41 | 59 | 1006.9 |
| 20260510000048 | 17 | 219 | 1.6 | 4.8 | 0.00 | 0.56 | 0.41 | 59 | 1007.1 |
| 20260509234536 | 18 | 204 | 1.6 | 12.9 | 0.00 | 0.56 | 0.41 | 58 | 1006.9 |
| 20260509233033 | 18 | 208 | 1.6 | 6.4 | 0.00 | 0.56 | 0.41 | 57 | 1006.8 |
| 20260509231527 | 18 | 237 | 6.4 | 14.5 | 0.00 | 0.56 | 0.41 | 55 | 1006.5 |
| 20260509230022 | 19 | 226 | 4.8 | 9.7 | 0.00 | 0.56 | 0.41 | 55 | 1006.4 |
| 20260509224519 | 19 | 196 | 4.8 | 9.7 | 0.00 | 0.56 | 0.41 | 56 | 1006.5 |
| 20260509223015 | 19 | 221 | 6.4 | 14.5 | 0.00 | 0.56 | 0.41 | 55 | 1006.5 |
| 20260509221515 | 19 | 212 | 6.4 | 14.5 | 0.00 | 0.56 | 0.41 | 55 | 1006.7 |
| 20260509220111 | 19 | 194 | 6.4 | 14.5 | 0.00 | 0.56 | 0.41 | 56 | 1006.7 |
| 20260509214506 | 19 | 149 | 6.4 | 12.9 | 0.00 | 0.56 | 0.41 | 56 | 1006.8 |
| 20260509213003 | 19 | 201 | 8.0 | 14.5 | 0.00 | 0.56 | 0.41 | 54 | 1006.8 |
| 20260509211556 | 19 | 183 | 3.2 | 11.3 | 0.00 | 0.56 | 0.41 | 57 | 1007.2 |
| 20260509210058 | 20 | 237 | 4.8 | 12.9 | 0.00 | 0.56 | 0.41 | 54 | 1007.3 |
| 20260509204548 | 20 | 158 | 4.8 | 9.7 | 0.00 | 0.56 | 0.41 | 55 | 1007.3 |
| 20260509203056 | 20 | 219 | 4.8 | 12.9 | 0.00 | 0.56 | 0.41 | 54 | 1007.4 |
| 20260509201538 | 20 | 219 | 4.8 | 14.5 | 0.00 | 0.56 | 0.41 | 56 | 1007.7 |
| 20260509200037 | 20 | 236 | 6.4 | 11.3 | 0.00 | 0.56 | 0.41 | 53 | 1008.1 |
| 20260509194533 | 19 | 234 | 4.8 | 9.7 | 0.00 | 0.58 | 0.41 | 54 | 1008.3 |
| 20260509193030 | 19 | 247 | 3.2 | 12.9 | 0.00 | 0.58 | 0.41 | 56 | 1008.5 |
| 20260509191534 | 18 | 186 | 3.2 | 8.0 | 0.00 | 0.58 | 0.41 | 56 | 1008.7 |
| 20260509190019 | 19 | 226 | 3.2 | 14.5 | 0.00 | 0.58 | 0.41 | 55 | 1008.8 |
| 20260509184528 | 18 | 213 | 6.4 | 11.3 | 0.00 | 0.61 | 0.41 | 55 | 1008.9 |
| 20260509183008 | 18 | 213 | 3.2 | 9.7 | 0.00 | 0.61 | 0.41 | 54 | 1008.9 |
| 20260509181503 | 18 | 215 | 3.2 | 11.3 | 0.00 | 0.61 | 0.41 | 53 | 1009.1 |
| 20260509174619 | 18 | 159 | 4.8 | 11.3 | 0.00 | 0.64 | 0.41 | 47 | 1009.1 |
| 20260509173052 | 17 | 204 | 3.2 | 12.9 | 0.00 | 0.64 | 0.41 | 49 | 1009.1 |
| 20260509171545 | 17 | 217 | 3.2 | 14.5 | 0.00 | 0.64 | 0.41 | 48 | 1009.3 |
| 20260509170041 | 17 | 207 | 4.8 | 9.7 | 0.00 | 0.64 | 0.41 | 48 | 1009.4 |
| 20260509164536 | 16 | 245 | 3.2 | 9.7 | 0.00 | 0.64 | 0.41 | 13 | 1009.4 |
| 20260509163039 | 15 | 249 | 3.2 | 8.0 | 0.00 | 0.64 | 0.41 | 5 | 1009.6 |
| 20260509161528 | 15 | 236 | 3.2 | 9.7 | 0.00 | 0.64 | 0.41 | 1 | 1009.6 |
| 20260509160026 | 13 | 236 | 1.6 | 6.4 | 0.00 | 0.64 | 0.41 | 1 | 1009.7 |
| 20260509154519 | 13 | 201 | 0.0 | 6.4 | 0.00 | 0.64 | 0.41 | 1 | 1009.7 |
| 20260509153022 | 12 | 238 | 0.0 | 6.4 | 0.00 | 0.64 | 0.41 | 1 | 1009.6 |
| 20260509151511 | 12 | 215 | 0.0 | 6.4 | 0.00 | 0.64 | 0.41 | 1 | 1009.4 |
| 20260509150006 | 12 | 222 | 0.0 | 4.8 | 0.00 | 0.64 | 0.41 | 1 | 1009.3 |
| 20260509144505 | 12 | 231 | 0.0 | 6.4 | 0.00 | 0.64 | 0.41 | 1 | 1009.3 |
| 20260509143007 | 12 | 211 | 1.6 | 8.0 | 0.00 | 0.64 | 0.41 | 1 | 1009.3 |
| 20260509141559 | 12 | 208 | 1.6 | 4.8 | 0.00 | 0.64 | 0.41 | 1 | 1009.3 |
| 20260509140100 | 12 | 231 | 3.2 | 8.0 | 0.00 | 0.64 | 0.41 | 1 | 1009.1 |
| 20260509134551 | 11 | 213 | 0.0 | 3.2 | 0.00 | 0.64 | 0.41 | 1 | 1009.5 |
| 20260509133047 | 11 | 224 | 0.0 | 3.2 | 0.00 | 0.64 | 0.41 | 1 | 1009.6 |
| 20260509131542 | 10 | 219 | 0.0 | 0.0 | 0.00 | 0.64 | 0.41 | 1 | 1009.7 |
| 20260509130041 | 10 | 226 | 0.0 | 1.6 | 0.00 | 0.64 | 0.41 | 1 | 1009.8 |
| 20260509124540 | 10 | 226 | 0.0 | 4.8 | 0.00 | 0.64 | 0.41 | 1 | 1009.9 |
| 20260509123029 | 10 | 236 | 0.0 | 3.2 | 0.00 | 0.64 | 0.41 | 1 | 1009.8 |
| 20260509121526 | 10 | 184 | 0.0 | 4.8 | 0.00 | 0.64 | 0.41 | 1 | 1009.7 |